Terug naar catalogus

STARLINK-4041

ActiefCommunicatieVLEO
NORAD 52695·PAYLOAD·🇺🇸 United States

Gelanceerd May 18, 2022 vanaf Cape Canaveral Space Force Station

Loading…

Volgende Passages (komende 24 uur)

TLE

VersSource: CelesTrak SupGP

Epoch: Sep 14, 2026, 21:00 UTC

1 52695C 22053AR  26257.87548611  .00010859  00000+0  68106-3 0  2574
2 52695  53.1598  19.0010 0001216  76.4567 305.4996 15.08825375    17

Volg STARLINK-4041 in realtime met AllMySat

Download on the App Store